This is the latest recevied weather packets stored in our database for station/object KE8GJZ-2. If no packets are shown the sender has not sent any weather packets the latest 10 day(s).
| Time | Temp. | Humidity | Pressure | Rain* | Wind** | Luminosity | Snow |
|---|---|---|---|---|---|---|---|
| 1777786576 | 4.44° C | 68% | 1016.1 hPa | 0 mm | - | 0 W/m² | - |
| 1777786274 | 4.44° C | 67% | 1016.2 hPa | 0 mm | - | 0 W/m² | - |
| 1777785970 | 4.44° C | 68% | 1016.3 hPa | 0 mm | - | 0 W/m² | - |
| 1777785667 | 3.89° C | 70% | 1016.5 hPa | 0 mm | - | 0 W/m² | - |
| 1777785362 | 3.89° C | 70% | 1016.1 hPa | 0 mm | - | 0 W/m² | - |
| 1777785060 | 3.89° C | 71% | 1016.4 hPa | 0 mm | - | 0 W/m² | - |
| 1777784756 | 3.89° C | 70% | 1016.5 hPa | 0 mm | - | 0 W/m² | - |
| 1777784453 | 3.89° C | 71% | 1016.5 hPa | 0 mm | - | 0 W/m² | - |
| 1777784150 | 3.89° C | 71% | 1016.6 hPa | 0 mm | - | 0 W/m² | - |
| 1777783847 | 3.33° C | 71% | 1016.5 hPa | 0 mm | - | 0 W/m² | - |
| 1777783544 | 3.33° C | 72% | 1016.4 hPa | 0 mm | - | 0 W/m² | - |
| 1777783242 | 3.33° C | 73% | 1016.6 hPa | 0 mm | - | 0 W/m² | - |
| 1777782938 | 3.33° C | 72% | 1016.6 hPa | 0 mm | - | 0 W/m² | - |
| 1777782635 | 3.89° C | 73% | 1016.4 hPa | 0 mm | - | 0 W/m² | - |
| 1777782332 | 3.89° C | 73% | 1016.5 hPa | 0 mm | - | 0 W/m² | - |
| 1777782028 | 3.89° C | 72% | 1016.5 hPa | 0 mm | - | 0 W/m² | - |
| 1777781725 | 3.89° C | 72% | 1016.6 hPa | 0 mm | - | 0 W/m² | - |
| 1777781423 | 3.89° C | 70% | 1016.6 hPa | 0 mm | - | 0 W/m² | - |
| 1777781120 | 3.89° C | 70% | 1016.6 hPa | 0 mm | - | 0 W/m² | - |
| 1777780817 | 4.44° C | 70% | 1016.7 hPa | 0 mm | - | 0 W/m² | - |
| 1777780513 | 4.44° C | 69% | 1016.6 hPa | 0 mm | - | 0 W/m² | - |
| 1777780211 | 4.44° C | 70% | 1016.6 hPa | 0 mm | - | 0 W/m² | - |
| 1777779908 | 4.44° C | 70% | 1016.8 hPa | 0 mm | - | 0 W/m² | - |
| 1777779605 | 4.44° C | 73% | 1016.8 hPa | 0 mm | - | 0 W/m² | - |
| 1777779302 | 4.44° C | 74% | 1016.7 hPa | 0 mm | - | 0 W/m² | - |
* Rain latest hour (hover to see other rain measurements)
** Current wind speed in m/s (hover to see current wind gust speed)